sat.trackr.live / text

‹ back to catalog

STARLINK-34586

NORAD 64950 · 2025-158U

PAYLOAD ACTIVE UNKNOWN

§ Identity

Operator
Country
US
Launch date
2025-07-27
Launch site
AFWTR
Launch vehicle
Mass (kg)
RCS (m²)

Purposes: comms

External: N2YO · Heavens-Above · Gunter

§ Orbital elements

Epoch: 2026-09-20T13:48:01.616544Z

Period
93.91 min
Inclination
97.2850°
Eccentricity
0.0001611
Mean motion
15.33452054 rev/d
Perigee alt
464.4 km
Apogee alt
466.6 km
Semi-major
6,843.7 km
B*
4.5536e-4
RAAN
121.8213°
Arg perigee
92.4925°
Mean anomaly
267.6502°
Rev number
6,470

§ Raw data

STARLINK-345861 64950U 25158U   26263.57501871  .00014658  00000+0  45536-3 0  99972 64950  97.2850 121.8213 0001611  92.4925 267.6502 15.33452054 64702

JSON: /api/v1/satellites/64950 · /tle

For live sub-satellite position, see the globe view (requires WebGL).

§ Visibility from observer

Set your observer location to see the next 7 days of passes ≥ 10°. The values pass through the URL so the page stays shareable.

No JS? Fill the form by hand. The geolocation button needs JavaScript.